FW4770 Weather Reports


Display with metric or nautical units.
time (UTC)temp
F
wind
direction
speed
MPH
gust
MPH
rain 1hr
in
rain 24hr
in
rain mn
in
humidity
%
barometer
mb
20260504004707 65 281 8.0 12.0 0.00 0.00 0.00 35 1004.5
20260504004611 65 284 8.0 12.0 0.00 0.00 0.00 35 1004.5
20260504004517 66 302 7.0 12.0 0.00 0.00 0.00 35 1004.5
20260504004405 66 297 7.0 12.0 0.00 0.00 0.00 36 1004.5
20260504004330 66 302 8.0 11.0 0.00 0.00 0.00 35 1004.5
20260504004213 66 302 9.0 11.0 0.00 0.00 0.00 34 1004.5
20260504004118 66 294 9.0 11.0 0.00 0.00 0.00 34 1004.5
20260504004023 66 290 7.0 11.0 0.00 0.00 0.00 35 1004.5
20260504003909 66 286 6.0 10.0 0.00 0.00 0.00 35 1004.5
20260504003834 66 302 6.0 11.0 0.00 0.00 0.00 35 1004.5
20260504003718 66 300 5.0 14.0 0.00 0.00 0.00 35 1004.5
20260504003607 66 284 6.0 14.0 0.00 0.00 0.00 35 1004.5
20260504003512 66 288 6.0 14.0 0.00 0.00 0.00 36 1004.6
20260504003418 66 300 6.0 14.0 0.00 0.00 0.00 36 1004.6
20260504003323 66 307 7.0 14.0 0.00 0.00 0.00 35 1004.6
20260504003206 67 304 7.0 14.0 0.00 0.00 0.00 33 1004.6
20260504003116 66 301 7.0 14.0 0.00 0.00 0.00 33 1004.6
20260504003021 66 324 8.0 14.0 0.00 0.00 0.00 34 1004.6
20260504002907 66 351 9.0 12.0 0.00 0.00 0.00 33 1004.6
20260504002813 66 315 8.0 11.0 0.00 0.00 0.00 34 1004.6
20260504002718 66 293 7.0 11.0 0.00 0.00 0.00 34 1004.7
20260504002622 66 286 6.0 11.0 0.00 0.00 0.00 33 1004.6
20260504002511 67 308 5.0 11.0 0.00 0.00 0.00 35 1004.6
20260504002417 67 273 4.0 11.0 0.00 0.00 0.00 36 1004.7
20260504002323 67 280 6.0 11.0 0.00 0.00 0.00 34 1004.7
20260504002207 67 291 6.0 11.0 0.00 0.00 0.00 35 1004.7
20260504002110 67 290 5.0 11.0 0.00 0.00 0.00 34 1004.6
20260504002016 67 309 6.0 11.0 0.00 0.00 0.00 36 1004.7
20260504001905 67 310 8.0 11.0 0.00 0.00 0.00 35 1004.7
20260504001811 67 279 8.0 11.0 0.00 0.00 0.00 34 1004.7
20260504001717 67 288 8.0 11.0 0.00 0.00 0.00 34 1004.7
20260504001622 67 295 8.0 11.0 0.00 0.00 0.00 33 1004.8
20260504001507 67 360 7.0 11.0 0.00 0.00 0.00 32 1004.7
20260504001433 67 314 6.0 10.0 0.00 0.00 0.00 33 1004.7
20260504001322 67 296 5.0 12.0 0.00 0.00 0.00 33 1004.7
20260504001227 67 309 6.0 12.0 0.00 0.00 0.00 36 1004.7
20260504001112 67 298 6.0 13.0 0.00 0.00 0.00 32 1004.8
20260504001038 67 309 6.0 13.0 0.00 0.00 0.00 35 1004.8
20260504000923 67 302 7.0 13.0 0.00 0.00 0.00 34 1004.8
20260504000809 67 309 9.0 13.0 0.00 0.00 0.00 33 1004.8
20260504000718 67 286 9.0 13.0 0.00 0.00 0.00 33 1004.8
20260504000604 67 316 9.0 13.0 0.00 0.00 0.00 32 1004.8
20260504000510 67 298 9.0 13.0 0.00 0.00 0.00 34 1004.8
20260504000416 67 278 9.0 13.0 0.00 0.00 0.00 35 1004.8
20260504000321 67 286 10.0 13.0 0.00 0.00 0.00 33 1004.8
20260504000207 67 290 9.0 13.0 0.00 0.00 0.00 34 1004.8
20260504000116 67 300 10.0 13.0 0.00 0.00 0.00 32 1004.7
20260504000021 67 299 10.0 13.0 0.00 0.00 0.00 33 1004.8
20260503235906 67 298 8.0 12.0 0.00 0.00 0.00 32 1004.7
20260503235831 67 294 6.0 11.0 0.00 0.00 0.00 33 1004.7
20260503235714 67 307 5.0 11.0 0.00 0.00 0.00 33 1004.8
20260503235619 67 294 4.0 11.0 0.00 0.00 0.00 35 1004.7
20260503235526 68 13 4.0 11.0 0.00 0.00 0.00 34 1004.7
20260503235410 68 300 6.0 11.0 0.00 0.00 0.00 32 1004.7
20260503235315 68 290 8.0 11.0 0.00 0.00 0.00 31 1004.7
20260503235240 68 318 8.0 12.0 0.00 0.00 0.00 31 1004.7
20260503235141 68 300 5.0 12.0 0.00 0.00 0.00 31 1004.7
20260503235005 68 304 3.0 12.0 0.00 0.00 0.00 32 1004.7
20260503234909 68 316 5.0 12.0 0.00 0.00 0.00 32 1004.7
20260503234818 68 344 6.0 12.0 0.00 0.00 0.00 32 1004.8
20260503234720 68 323 6.0 14.0 0.00 0.00 0.00 33 1004.7
20260503234604 68 279 6.0 14.0 0.00 0.00 0.00 30 1004.7
20260503234508 68 338 7.0 14.0 0.00 0.00 0.00 30 1004.7
20260503234412 68 315 7.0 14.0 0.00 0.00 0.00 30 1004.7
20260503234316 68 11 5.0 14.0 0.00 0.00 0.00 33 1004.8
20260503234204 69 355 6.0 14.0 0.00 0.00 0.00 32 1004.8
20260503234129 69 329 8.0 14.0 0.00 0.00 0.00 30 1004.8
20260503234031 69 355 9.0 14.0 0.00 0.00 0.00 30 1004.8
20260503233935 69 331 8.0 14.0 0.00 0.00 0.00 31 1004.8
20260503233818 69 314 7.0 13.0 0.00 0.00 0.00 31 1004.8
20260503233741 69 301 7.0 13.0 0.00 0.00 0.00 32 1004.7
20260503233625 69 315 9.0 13.0 0.00 0.00 0.00 32 1004.8
20260503233529 69 298 10.0 13.0 0.00 0.00 0.00 30 1004.8
20260503233412 69 311 10.0 13.0 0.00 0.00 0.00 30 1004.8
20260503233320 69 295 8.0 13.0 0.00 0.00 0.00 31 1004.8
20260503233204 69 314 6.0 12.0 0.00 0.00 0.00 31 1004.8
20260503233128 69 331 7.0 12.0 0.00 0.00 0.00 30 1004.8
20260503233031 69 351 8.0 14.0 0.00 0.00 0.00 30 1004.8
20260503232907 69 325 8.0 15.0 0.00 0.00 0.00 32 1004.8
20260503232809 69 294 7.0 15.0 0.00 0.00 0.00 30 1004.8
20260503232717 69 299 7.0 15.0 0.00 0.00 0.00 30 1004.8
20260503232622 69 334 8.0 15.0 0.00 0.00 0.00 30 1004.9
20260503232506 69 342 7.0 15.0 0.00 0.00 0.00 31 1004.8
20260503232410 70 288 6.0 15.0 0.00 0.00 0.00 30 1004.8
20260503232315 70 337 8.0 15.0 0.00 0.00 0.00 32 1004.9
20260503232218 70 306 10.0 15.0 0.00 0.00 0.00 30 1004.9
20260503232106 70 286 9.0 13.0 0.00 0.00 0.00 30 1004.9
20260503232031 70 298 8.0 12.0 0.00 0.00 0.00 29 1004.9
20260503231914 70 346 6.0 12.0 0.00 0.00 0.00 30 1004.9
20260503231818 70 316 7.0 14.0 0.00 0.00 0.00 30 1004.9
20260503231722 70 24 7.0 14.0 0.00 0.00 0.00 28 1004.9
20260503231606 70 336 7.0 14.0 0.00 0.00 0.00 30 1004.9
20260503231514 70 9 8.0 14.0 0.00 0.00 0.00 29 1004.9
20260503231419 70 347 8.0 14.0 0.00 0.00 0.00 29 1004.9
20260503231323 69 329 9.0 14.0 0.00 0.00 0.00 29 1004.8
20260503231206 69 327 9.0 16.0 0.00 0.00 0.00 28 1004.9
20260503231110 69 347 9.0 16.0 0.00 0.00 0.00 28 1004.9
20260503231015 69 309 10.0 16.0 0.00 0.00 0.00 28 1004.9
20260503230939 69 316 10.0 16.0 0.00 0.00 0.00 29 1004.9
20260503230806 69 324 9.0 16.0 0.00 0.00 0.00 30 1004.9
20260503230710 69 312 9.0 16.0 0.00 0.00 0.00 29 1004.9
20260503230613 69 327 9.0 16.0 0.00 0.00 0.00 32 1004.9
20260503230537 70 288 11.0 16.0 0.00 0.00 0.00 31 1005.0
20260503230420 70 292 12.0 16.0 0.00 0.00 0.00 28 1005.0
20260503230305 70 303 11.0 16.0 0.00 0.00 0.00 29 1004.9
20260503230212 70 300 10.0 15.0 0.00 0.00 0.00 32 1005.0
20260503230117 70 284 10.0 14.0 0.00 0.00 0.00 31 1005.0
20260503230041 70 308 12.0 14.0 0.00 0.00 0.00 29 1005.0
20260503225905 70 289 10.0 14.0 0.00 0.00 0.00 29 1005.0
20260503225809 70 310 9.0 13.0 0.00 0.00 0.00 29 1005.0
20260503225714 70 306 7.0 14.0 0.00 0.00 0.00 29 1005.0
20260503225622 70 306 7.0 14.0 0.00 0.00 0.00 30 1005.0
20260503225527 70 331 6.0 14.0 0.00 0.00 0.00 29 1005.0
20260503225410 70 294 6.0 15.0 0.00 0.00 0.00 29 1005.0
20260503225314 70 327 7.0 15.0 0.00 0.00 0.00 27 1005.2
20260503225219 70 314 6.0 15.0 0.00 0.00 0.00 28 1005.1
20260503225123 70 301 5.0 15.0 0.00 0.00 0.00 30 1005.1
20260503225012 70 350 7.0 15.0 0.00 0.00 0.00 27 1005.2
20260503224917 70 350 9.0 15.0 0.00 0.00 0.00 28 1005.3
20260503224822 71 323 8.0 16.0 0.00 0.00 0.00 29 1005.2
20260503224706 71 332 9.0 16.0 0.00 0.00 0.00 29 1005.2
20260503224630 71 316 9.0 16.0 0.00 0.00 0.00 29 1005.2
20260503224507 71 360 8.0 16.0 0.00 0.00 0.00 28 1005.1
20260503224431 71 330 9.0 16.0 0.00 0.00 0.00 28 1005.1
20260503224319 71 337 9.0 16.0 0.00 0.00 0.00 28 1005.2
20260503224222 71 348 9.0 16.0 0.00 0.00 0.00 29 1005.2
20260503224127 71 5 11.0 16.0 0.00 0.00 0.00 29 1005.1
20260503224011 71 326 10.0 16.0 0.00 0.00 0.00 32 1005.2
20260503223933 71 288 5.0 13.0 0.00 0.00 0.00 32 1005.1
20260503223836 71 254 5.0 15.0 0.00 0.00 0.00 31 1005.1
20260503223739 71 355 5.0 15.0 0.00 0.00 0.00 29 1005.2
20260503223606 71 269 6.0 15.0 0.00 0.00 0.00 29 1005.1
20260503223531 70 336 6.0 15.0 0.00 0.00 0.00 28 1005.1
20260503223414 70 321 7.0 15.0 0.00 0.00 0.00 30 1005.2
20260503223318 70 34 8.0 15.0 0.00 0.00 0.00 27 1005.2
20260503223223 70 306 9.0 15.0 0.00 0.00 0.00 27 1005.3
20260503223128 70 341 10.0 15.0 0.00 0.00 0.00 28 1005.3
20260503223005 70 15 11.0 15.0 0.00 0.00 0.00 28 1005.3
20260503222933 70 355 10.0 15.0 0.00 0.00 0.00 28 1005.3
20260503222817 70 346 8.0 15.0 0.00 0.00 0.00 29 1005.3
20260503222721 70 339 8.0 16.0 0.00 0.00 0.00 29 1005.2
20260503222626 70 17 8.0 16.0 0.00 0.00 0.00 28 1005.3
20260503222509 71 27 6.0 16.0 0.00 0.00 0.00 28 1005.2
20260503222414 71 27 6.0 16.0 0.00 0.00 0.00 29 1005.3
20260503222320 71 32 8.0 16.0 0.00 0.00 0.00 28 1005.3
20260503222209 71 315 10.0 16.0 0.00 0.00 0.00 29 1005.3
20260503222113 71 330 11.0 16.0 0.00 0.00 0.00 30 1005.4
20260503222019 71 12 11.0 16.0 0.00 0.00 0.00 29 1005.3
20260503221923 71 346 10.0 16.0 0.00 0.00 0.00 29 1005.3
20260503221827 71 314 8.0 13.0 0.00 0.00 0.00 29 1005.3
20260503221710 71 301 6.0 12.0 0.00 0.00 0.00 28 1005.2
20260503221618 71 348 4.0 12.0 0.00 0.00 0.00 30 1005.3
20260503221541 71 333 4.0 12.0 0.00 0.00 0.00 30 1005.4
20260503221422 71 328 4.0 12.0 0.00 0.00 0.00 31 1005.3
20260503221306 70 348 5.0 12.0 0.00 0.00 0.00 29 1005.3
20260503221209 70 355 7.0 12.0 0.00 0.00 0.00 29 1005.3
20260503221112 70 310 8.0 12.0 0.00 0.00 0.00 30 1005.4
20260503221015 70 331 7.0 13.0 0.00 0.00 0.00 33 1005.4
20260503220922 70 360 7.0 13.0 0.00 0.00 0.00 30 1005.3
20260503220826 70 318 7.0 14.0 0.00 0.00 0.00 29 1005.4
20260503220708 70 360 7.0 14.0 0.00 0.00 0.00 30 1005.4
20260503220612 70 15 5.0 14.0 0.00 0.00 0.00 31 1005.4
20260503220515 70 5 6.0 14.0 0.00 0.00 0.00 30 1005.4
20260503220438 70 19 8.0 14.0 0.00 0.00 0.00 28 1005.4
20260503220319 70 321 8.0 14.0 0.00 0.00 0.00 29 1005.4
20260503220206 70 18 8.0 14.0 0.00 0.00 0.00 31 1005.4
20260503220131 70 44 8.0 14.0 0.00 0.00 0.00 29 1005.5
20260503220007 70 317 9.0 14.0 0.00 0.00 0.00 29 1005.4
20260503215910 70 329 10.0 16.0 0.00 0.00 0.00 29 1005.5
20260503215812 70 333 9.0 16.0 0.00 0.00 0.00 29 1005.5
20260503215716 70 309 9.0 16.0 0.00 0.00 0.00 28 1005.4
20260503215639 70 336 8.0 16.0 0.00 0.00 0.00 28 1005.5
20260503215506 70 335 7.0 16.0 0.00 0.00 0.00 30 1005.5
20260503215408 70 309 9.0 16.0 0.00 0.00 0.00 27 1005.6
20260503215312 70 340 9.0 16.0 0.00 0.00 0.00 28 1005.5
20260503215215 70 5 12.0 16.0 0.00 0.00 0.00 27 1005.6
20260503215117 70 355 10.0 18.0 0.00 0.00 0.00 28 1005.5
20260503215020 70 344 8.0 18.0 0.00 0.00 0.00 30 1005.6
20260503214943 70 355 7.0 18.0 0.00 0.00 0.00 32 1005.6
20260503214848 70 314 8.0 18.0 0.00 0.00 0.00 29 1005.6
20260503214751 70 360 8.0 18.0 0.00 0.00 0.00 28 1005.5
20260503214607 70 360 11.0 18.0 0.00 0.00 0.00 29 1005.6
20260503214511 70 310 10.0 18.0 0.00 0.00 0.00 30 1005.6
20260503214413 70 292 10.0 18.0 0.00 0.00 0.00 29 1005.6
20260503214316 70 355 10.0 18.0 0.00 0.00 0.00 28 1005.6
20260503214219 70 338 8.0 15.0 0.00 0.00 0.00 30 1005.6
20260503214106 70 339 6.0 15.0 0.00 0.00 0.00 30 1005.5
20260503214009 70 31 9.0 15.0 0.00 0.00 0.00 29 1005.6
20260503213914 70 12 11.0 15.0 0.00 0.00 0.00 28 1005.6
20260503213817 70 345 11.0 15.0 0.00 0.00 0.00 28 1005.7
20260503213720 70 344 11.0 15.0 0.00 0.00 0.00 31 1005.7
20260503213607 70 340 10.0 14.0 0.00 0.00 0.00 28 1005.7
20260503213509 70 355 9.0 16.0 0.00 0.00 0.00 29 1005.7
20260503213411 70 17 9.0 16.0 0.00 0.00 0.00 29 1005.7
20260503213315 70 360 8.0 16.0 0.00 0.00 0.00 29 1005.7
20260503213218 70 5 7.0 16.0 0.00 0.00 0.00 30 1005.7
20260503213122 70 37 7.0 16.0 0.00 0.00 0.00 28 1005.7
20260503213009 70 18 7.0 16.0 0.00 0.00 0.00 30 1005.8
20260503212933 70 42 6.0 16.0 0.00 0.00 0.00 31 1005.8
20260503212815 70 10 7.0 16.0 0.00 0.00 0.00 29 1005.8
20260503212719 70 315 9.0 16.0 0.00 0.00 0.00 30 1005.7
20260503212623 70 324 9.0 18.0 0.00 0.00 0.00 29 1005.8
20260503212506 70 329 8.0 18.0 0.00 0.00 0.00 30 1005.9
20260503212410 70 5 8.0 18.0 0.00 0.00 0.00 30 1005.8
20260503212338 70 346 10.0 18.0 0.00 0.00 0.00 30 1005.7
20260503212220 70 299 10.0 18.0 0.00 0.00 0.00 31 1005.7
20260503212143 70 304 8.0 18.0 0.00 0.00 0.00 29 1005.8
20260503212006 70 327 9.0 18.0 0.00 0.00 0.00 29 1005.9
20260503211909 70 18 12.0 18.0 0.00 0.00 0.00 30 1005.9
20260503211812 70 5 11.0 18.0 0.00 0.00 0.00 30 1006.0
20260503211716 70 360 10.0 15.0 0.00 0.00 0.00 28 1006.0
20260503211623 70 345 8.0 15.0 0.00 0.00 0.00 29 1005.9
20260503211506 70 11 5.0 15.0 0.00 0.00 0.00 30 1005.9
20260503211410 70 324 6.0 15.0 0.00 0.00 0.00 28 1005.9
20260503211314 69 345 8.0 15.0 0.00 0.00 0.00 28 1005.9
20260503211217 69 343 8.0 15.0 0.00 0.00 0.00 31 1005.9
20260503211142 69 343 9.0 15.0 0.00 0.00 0.00 28 1005.9
20260503211009 69 360 9.0 16.0 0.00 0.00 0.00 30 1005.9
20260503210914 69 323 8.0 16.0 0.00 0.00 0.00 29 1005.9
20260503210838 69 360 9.0 21.0 0.00 0.00 0.00 28 1005.9
20260503210722 69 311 9.0 21.0 0.00 0.00 0.00 29 1005.9
20260503210626 69 290 9.0 21.0 0.00 0.00 0.00 30 1005.9
20260503210509 69 331 10.0 21.0 0.00 0.00 0.00 31 1005.9
20260503210412 69 320 9.0 21.0 0.00 0.00 0.00 29 1005.9
20260503210321 69 31 9.0 21.0 0.00 0.00 0.00 30 1005.9
20260503210206 69 55 12.0 21.0 0.00 0.00 0.00 28 1006.0
20260503210111 69 25 11.0 21.0 0.00 0.00 0.00 28 1006.0
20260503210016 69 348 9.0 21.0 0.00 0.00 0.00 29 1006.0
20260503205920 69 20 9.0 17.0 0.00 0.00 0.00 28 1005.9
20260503205824 69 300 10.0 17.0 0.00 0.00 0.00 29 1006.0
20260503205752 69 326 11.0 17.0 0.00 0.00 0.00 31 1006.0
20260503205607 69 306 12.0 17.0 0.00 0.00 0.00 31 1006.0
20260503205512 69 360 11.0 17.0 0.00 0.00 0.00 30 1005.9
20260503205415 69 321 11.0 17.0 0.00 0.00 0.00 28 1005.9
20260503205320 70 294 11.0 17.0 0.00 0.00 0.00 29 1005.9
20260503205223 70 301 11.0 17.0 0.00 0.00 0.00 30 1006.1
20260503205111 69 314 9.0 18.0 0.00 0.00 0.00 32 1006.0
20260503205016 69 5 8.0 18.0 0.00 0.00 0.00 32 1006.1
20260503204920 69 308 9.0 18.0 0.00 0.00 0.00 34 1006.0
20260503204805 69 333 12.0 18.0 0.00 0.00 0.00 28 1006.1
20260503204709 69 5 12.0 18.0 0.00 0.00 0.00 28 1006.2
20260503204614 69 355 12.0 18.0 0.00 0.00 0.00 30 1006.2
20260503204521 69 342 12.0 18.0 0.00 0.00 0.00 28 1006.0
20260503204406 69 303 12.0 18.0 0.00 0.00 0.00 29 1006.0
20260503204310 69 322 12.0 18.0 0.00 0.00 0.00 28 1006.0
20260503204214 69 305 9.0 23.0 0.00 0.00 0.00 30 1006.1
20260503204118 69 330 8.0 23.0 0.00 0.00 0.00 28 1006.1
20260503204021 69 349 8.0 24.0 0.00 0.00 0.00 29 1006.1
20260503203928 69 343 8.0 24.0 0.00 0.00 0.00 29 1006.1
20260503203805 69 348 10.0 24.0 0.00 0.00 0.00 28 1006.1
20260503203709 69 334 12.0 24.0 0.00 0.00 0.00 29 1006.1
20260503203614 69 331 13.0 24.0 0.00 0.00 0.00 31 1006.1
20260503203519 69 340 13.0 24.0 0.00 0.00 0.00 29 1006.1
20260503203424 69 355 13.0 24.0 0.00 0.00 0.00 30 1006.0
20260503203311 69 298 14.0 24.0 0.00 0.00 0.00 30 1006.0
20260503203236 69 308 11.0 24.0 0.00 0.00 0.00 28 1006.0
20260503203120 69 298 9.0 18.0 0.00 0.00 0.00 29 1006.0
20260503203005 69 355 9.0 18.0 0.00 0.00 0.00 27 1006.1
20260503202929 69 350 11.0 18.0 0.00 0.00 0.00 27 1006.2
20260503202812 69 5 12.0 18.0 0.00 0.00 0.00 29 1006.2
20260503202737 69 355 13.0 18.0 0.00 0.00 0.00 28 1006.3
20260503202624 69 348 13.0 18.0 0.00 0.00 0.00 31 1006.0
20260503202508 69 338 12.0 17.0 0.00 0.00 0.00 28 1006.2
20260503202411 69 355 11.0 16.0 0.00 0.00 0.00 30 1006.1
20260503202315 69 9 10.0 16.0 0.00 0.00 0.00 28 1006.1
20260503202239 69 23 8.0 16.0 0.00 0.00 0.00 29 1006.1
20260503202122 69 14 7.0 15.0 0.00 0.00 0.00 29 1006.2
20260503202010 69 5 9.0 15.0 0.00 0.00 0.00 28 1006.1
20260503201915 69 346 10.0 15.0 0.00 0.00 0.00 29 1006.2
20260503201818 69 9 9.0 15.0 0.00 0.00 0.00 28 1006.2
20260503201722 70 26 9.0 14.0 0.00 0.00 0.00 30 1006.2
20260503201606 69 12 10.0 14.0 0.00 0.00 0.00 29 1006.2
20260503201530 69 33 9.0 14.0 0.00 0.00 0.00 32 1006.3
20260503201414 69 360 9.0 13.0 0.00 0.00 0.00 31 1006.3
20260503201322 69 328 9.0 13.0 0.00 0.00 0.00 29 1006.2
20260503201226 69 360 8.0 14.0 0.00 0.00 0.00 30 1006.2
20260503201109 69 11 8.0 14.0 0.00 0.00 0.00 28 1006.2
20260503201014 69 23 8.0 17.0 0.00 0.00 0.00 28 1006.2
20260503200919 69 43 8.0 17.0 0.00 0.00 0.00 29 1006.3
20260503200823 69 5 6.0 17.0 0.00 0.00 0.00 28 1006.2
20260503200731 69 14 5.0 17.0 0.00 0.00 0.00 30 1006.2
20260503200614 69 313 6.0 17.0 0.00 0.00 0.00 32 1006.2
20260503200519 69 360 8.0 17.0 0.00 0.00 0.00 30 1006.2
20260503200422 69 50 9.0 17.0 0.00 0.00 0.00 30 1006.3
20260503200327 70 53 8.0 17.0 0.00 0.00 0.00 30 1006.3
20260503200229 69 346 6.0 17.0 0.00 0.00 0.00 34 1006.3
20260503200133 69 285 5.0 14.0 0.00 0.00 0.00 32 1006.2
20260503200015 69 329 7.0 14.0 0.00 0.00 0.00 31 1006.3
20260503195923 69 339 6.0 14.0 0.00 0.00 0.00 30 1006.3
20260503195807 69 339 6.0 21.0 0.00 0.00 0.00 31 1006.3
20260503195732 69 304 7.0 21.0 0.00 0.00 0.00 30 1006.3
20260503195615 69 333 8.0 21.0 0.00 0.00 0.00 30 1006.3
20260503195520 69 329 9.0 21.0 0.00 0.00 0.00 30 1006.3
20260503195405 69 344 9.0 21.0 0.00 0.00 0.00 29 1006.4
20260503195329 69 355 9.0 21.0 0.00 0.00 0.00 31 1006.4
20260503195216 69 347 9.0 21.0 0.00 0.00 0.00 31 1006.3
20260503195140 69 360 11.0 21.0 0.00 0.00 0.00 33 1006.4
20260503195004 69 321 10.0 21.0 0.00 0.00 0.00 33 1006.3
20260503194909 69 329 8.0 17.0 0.00 0.00 0.00 33 1006.3
20260503194833 69 299 7.0 17.0 0.00 0.00 0.00 37 1006.3
20260503194716 69 308 8.0 18.0 0.00 0.00 0.00 35 1006.4
20260503194619 69 330 9.0 18.0 0.00 0.00 0.00 33 1006.3
20260503194507 69 337 10.0 18.0 0.00 0.00 0.00 36 1006.3
20260503194412 70 303 8.0 18.0 0.00 0.00 0.00 37 1006.3
20260503194316 70 331 8.0 18.0 0.00 0.00 0.00 35 1006.4
20260503194241 70 300 11.0 18.0 0.00 0.00 0.00 31 1006.3
20260503194104 70 351 10.0 18.0 0.00 0.00 0.00 32 1006.4
20260503194008 69 348 9.0 18.0 0.00 0.00 0.00 36 1006.3
20260503193917 69 355 9.0 18.0 0.00 0.00 0.00 37 1006.4
20260503193821 69 9 6.0 18.0 0.00 0.00 0.00 35 1006.3
20260503193706 69 5 6.0 12.0 0.00 0.00 0.00 34 1006.3
20260503193630 69 331 8.0 12.0 0.00 0.00 0.00 32 1006.3
20260503193507 69 12 9.0 12.0 0.00 0.00 0.00 31 1006.4
20260503193411 69 328 8.0 12.0 0.00 0.00 0.00 32 1006.4
20260503193319 69 5 8.0 14.0 0.00 0.00 0.00 33 1006.3
20260503193223 69 25 8.0 14.0 0.00 0.00 0.00 32 1006.4
20260503193107 70 32 7.0 14.0 0.00 0.00 0.00 32 1006.4
20260503193030 70 360 6.0 14.0 0.00 0.00 0.00 31 1006.4
20260503192912 69 28 6.0 16.0 0.00 0.00 0.00 32 1006.5
20260503192817 69 30 9.0 16.0 0.00 0.00 0.00 31 1006.5
20260503192705 69 5 9.0 17.0 0.00 0.00 0.00 32 1006.6
20260503192631 69 350 10.0 17.0 0.00 0.00 0.00 32 1006.5
20260503192506 69 339 8.0 20.0 0.00 0.00 0.00 31 1006.5
20260503192411 69 328 7.0 20.0 0.00 0.00 0.00 33 1006.6
20260503192314 69 312 7.0 20.0 0.00 0.00 0.00 31 1006.6
20260503192238 69 335 9.0 20.0 0.00 0.00 0.00 32 1006.6
20260503192121 69 312 12.0 20.0 0.00 0.00 0.00 30 1006.7
20260503192009 69 334 13.0 20.0 0.00 0.00 0.00 29 1006.7
20260503191913 69 26 12.0 20.0 0.00 0.00 0.00 31 1006.8
20260503191817 69 349 12.0 20.0 0.00 0.00 0.00 30 1006.7
20260503191722 69 5 12.0 20.0 0.00 0.00 0.00 32 1006.8
20260503191607 69 5 11.0 18.0 0.00 0.00 0.00 32 1006.8
20260503191532 69 360 11.0 19.0 0.00 0.00 0.00 29 1006.8
20260503191419 69 360 11.0 19.0 0.00 0.00 0.00 29 1006.8
20260503191323 69 331 11.0 19.0 0.00 0.00 0.00 30 1006.7
20260503191228 69 25 12.0 19.0 0.00 0.00 0.00 29 1006.8
20260503191131 69 329 13.0 19.0 0.00 0.00 0.00 29 1006.7
20260503191035 69 350 13.0 19.0 0.00 0.00 0.00 30 1006.7
20260503190919 69 360 11.0 19.0 0.00 0.00 0.00 30 1006.7
20260503190843 69 341 13.0 19.0 0.00 0.00 0.00 28 1006.9
20260503190725 69 338 11.0 18.0 0.00 0.00 0.00 31 1006.7
20260503190612 69 360 9.0 17.0 0.00 0.00 0.00 32 1006.9
20260503190516 69 10 9.0 17.0 0.00 0.00 0.00 30 1006.8
20260503190421 69 5 10.0 17.0 0.00 0.00 0.00 32 1006.6
20260503190325 69 20 11.0 17.0 0.00 0.00 0.00 33 1006.8
20260503190249 69 355 12.0 20.0 0.00 0.00 0.00 31 1007.0
20260503190105 69 26 10.0 20.0 0.00 0.00 0.00 31 1006.8
20260503190009 69 309 11.0 20.0 0.00 0.00 0.00 31 1006.7
20260503185918 69 9 12.0 20.0 0.00 0.00 0.00 30 1006.7
20260503185819 69 345 11.0 20.0 0.00 0.00 0.00 31 1006.8
20260503185704 69 347 10.0 20.0 0.00 0.00 0.00 31 1006.9
20260503185609 69 15 11.0 20.0 0.00 0.00 0.00 33 1006.8
20260503185514 69 355 12.0 20.0 0.00 0.00 0.00 33 1006.9
20260503185417 69 343 10.0 20.0 0.00 0.00 0.00 33 1006.8
20260503185344 69 331 10.0 16.0 0.00 0.00 0.00 33 1006.8
20260503185228 69 344 10.0 16.0 0.00 0.00 0.00 31 1006.9
20260503185130 69 348 8.0 16.0 0.00 0.00 0.00 34 1006.7
20260503185014 68 355 5.0 16.0 0.00 0.00 0.00 34 1006.7
20260503184919 68 17 6.0 17.0 0.00 0.00 0.00 35 1006.7
20260503184805 68 300 10.0 17.0 0.00 0.00 0.00 31 1006.8
20260503184709 69 346 11.0 17.0 0.00 0.00 0.00 30 1006.7
20260503184618 69 331 11.0 17.0 0.00 0.00 0.00 32 1006.8
20260503184504 69 355 12.0 17.0 0.00 0.00 0.00 33 1006.7
20260503184430 69 329 12.0 17.0 0.00 0.00 0.00 34 1006.8
20260503184313 69 344 10.0 17.0 0.00 0.00 0.00 33 1006.8
20260503184216 68 348 10.0 19.0 0.00 0.00 0.00 34 1006.8
20260503184138 68 314 10.0 19.0 0.00 0.00 0.00 32 1006.8
20260503184006 68 340 9.0 19.0 0.00 0.00 0.00 33 1006.7
20260503183912 68 10 10.0 19.0 0.00 0.00 0.00 33 1006.8
20260503183816 68 5 9.0 19.0 0.00 0.00 0.00 33 1006.8
20260503183741 68 5 6.0 19.0 0.00 0.00 0.00 35 1006.8
20260503183605 68 20 9.0 19.0 0.00 0.00 0.00 33 1006.9
20260503183510 68 44 12.0 19.0 0.00 0.00 0.00 34 1007.0
20260503183324 68 360 6.0 18.0 0.00 0.00 0.00 32 1006.9
20260503183207 68 44 10.0 18.0 0.00 0.00 0.00 33 1007.0
20260503183112 68 12 9.0 18.0 0.00 0.00 0.00 31 1006.8
20260503183036 68 22 9.0 18.0 0.00 0.00 0.00 33 1006.8
20260503182919 68 49 10.0 18.0 0.00 0.00 0.00 33 1006.8
20260503182843 68 24 11.0 18.0 0.00 0.00 0.00 33 1006.9
20260503182727 68 18 10.0 18.0 0.00 0.00 0.00 36 1007.0
20260503182613 68 22 9.0 18.0 0.00 0.00 0.00 34 1006.9
20260503182517 68 42 10.0 18.0 0.00 0.00 0.00 35 1007.0
20260503182422 68 14 9.0 18.0 0.00 0.00 0.00 34 1006.9
20260503182326 68 5 8.0 18.0 0.00 0.00 0.00 35 1006.9
20260503182208 68 346 8.0 18.0 0.00 0.00 0.00 36 1006.9
20260503182114 68 61 10.0 18.0 0.00 0.00 0.00 36 1007.0
20260503182038 68 13 11.0 18.0 0.00 0.00 0.00 33 1007.1
20260503181905 68 32 12.0 21.0 0.00 0.00 0.00 35 1007.1
20260503181809 68 34 12.0 21.0 0.00 0.00 0.00 36 1007.6
20260503181713 68 344 12.0 21.0 0.00 0.00 0.00 36 1007.0
20260503181617 68 47 10.0 21.0 0.00 0.00 0.00 37 1007.1
20260503181520 68 26 9.0 21.0 0.00 0.00 0.00 38 1007.3
20260503181410 68 15 10.0 21.0 0.00 0.00 0.00 37 1007.2
20260503181313 68 344 12.0 21.0 0.00 0.00 0.00 35 1007.1
20260503181217 68 360 14.0 21.0 0.00 0.00 0.00 35 1007.2
20260503181122 68 5 14.0 21.0 0.00 0.00 0.00 34 1007.2
20260503181006 68 360 14.0 21.0 0.00 0.00 0.00 35 1007.2
20260503180910 68 355 15.0 21.0 0.00 0.00 0.00 35 1007.1
20260503180834 68 360 13.0 21.0 0.00 0.00 0.00 36 1007.0
20260503180741 68 340 10.0 21.0 0.00 0.00 0.00 37 1007.4
20260503180604 68 338 8.0 16.0 0.00 0.00 0.00 39 1007.0
20260503180528 68 331 9.0 16.0 0.00 0.00 0.00 39 1007.0
20260503180411 68 25 11.0 16.0 0.00 0.00 0.00 41 1007.2
20260503180316 68 347 12.0 16.0 0.00 0.00 0.00 40 1007.1
20260503180221 68 349 10.0 15.0 0.00 0.00 0.00 43 1007.0
20260503180145 68 39 11.0 15.0 0.00 0.00 0.00 41 1007.0
20260503180031 68 350 12.0 15.0 0.00 0.00 0.00 41 1007.4
20260503175906 68 21 10.0 15.0 0.00 0.00 0.00 44 1007.0
20260503175811 68 5 9.0 13.0 0.00 0.00 0.00 44 1007.0
20260503175715 68 360 6.0 13.0 0.00 0.00 0.00 45 1007.1
20260503175640 68 331 6.0 13.0 0.00 0.00 0.00 44 1007.0
20260503175504 68 338 6.0 13.0 0.00 0.00 0.00 44 1006.9
20260503175412 68 249 6.0 13.0 0.00 0.00 0.00 43 1006.9
20260503175337 68 360 6.0 16.0 0.00 0.00 0.00 46 1007.0
20260503175220 68 330 8.0 16.0 0.00 0.00 0.00 44 1007.1
20260503175104 67 333 8.0 16.0 0.00 0.00 0.00 45 1007.1
20260503175028 67 42 7.0 16.0 0.00 0.00 0.00 44 1007.0
20260503174911 67 39 7.0 16.0 0.00 0.00 0.00 44 1007.3
20260503174817 67 76 6.0 16.0 0.00 0.00 0.00 44 1007.1
20260503174705 67 30 9.0 16.0 0.00 0.00 0.00 43 1007.2
20260503174629 67 355 11.0 16.0 0.00 0.00 0.00 43 1007.2
20260503174507 67 334 7.0 15.0 0.00 0.00 0.00 44 1007.0
20260503174410 67 77 5.0 13.0 0.00 0.00 0.00 42 1007.1
20260503174316 68 44 5.0 13.0 0.00 0.00 0.00 43 1007.1
20260503174240 68 32 6.0 13.0 0.00 0.00 0.00 43 1007.0
20260503174142 68 26 8.0 13.0 0.00 0.00 0.00 48 1007.2
20260503174010 68 360 8.0 15.0 0.00 0.00 0.00 46 1007.2
20260503173914 67 32 6.0 15.0 0.00 0.00 0.00 46 1007.1
20260503173818 67 355 5.0 15.0 0.00 0.00 0.00 44 1007.1
20260503173722 67 9 6.0 16.0 0.00 0.00 0.00 45 1007.1
20260503173626 67 320 8.0 16.0 0.00 0.00 0.00 44 1007.1
20260503173551 67 342 7.0 16.0 0.00 0.00 0.00 47 1007.2
20260503173407 67 345 7.0 16.0 0.00 0.00 0.00 45 1007.1
20260503173315 67 51 9.0 16.0 0.00 0.00 0.00 43 1007.2
20260503173220 67 42 8.0 16.0 0.00 0.00 0.00 42 1007.3
20260503173123 67 5 7.0 16.0 0.00 0.00 0.00 45 1007.3
20260503173005 67 5 11.0 16.0 0.00 0.00 0.00 42 1007.3
20260503172909 67 18 12.0 16.0 0.00 0.00 0.00 42 1007.3
20260503172815 67 26 10.0 16.0 0.00 0.00 0.00 46 1007.6
20260503172723 67 42 7.0 14.0 0.00 0.00 0.00 46 1007.3
20260503172628 67 32 6.0 15.0 0.00 0.00 0.00 48 1007.3
20260503172512 67 38 7.0 17.0 0.00 0.00 0.00 46 1007.4
20260503172417 67 17 8.0 17.0 0.00 0.00 0.00 45 1007.5
20260503172322 67 48 9.0 17.0 0.00 0.00 0.00 45 1007.5
20260503172207 67 28 9.0 17.0 0.00 0.00 0.00 44 1007.5
20260503172116 67 29 8.0 17.0 0.00 0.00 0.00 45 1007.4
20260503172022 66 44 9.0 17.0 0.00 0.00 0.00 42 1007.5
20260503171907 66 30 11.0 17.0 0.00 0.00 0.00 43 1007.6
20260503171812 66 32 12.0 17.0 0.00 0.00 0.00 45 1007.5
20260503171718 66 345 12.0 17.0 0.00 0.00 0.00 45 1007.7
20260503171622 66 76 10.0 15.0 0.00 0.00 0.00 44 1007.5
20260503171512 66 51 11.0 15.0 0.00 0.00 0.00 46 1007.4
20260503171418 66 26 10.0 15.0 0.00 0.00 0.00 45 1007.6
20260503171304 66 39 8.0 15.0 0.00 0.00 0.00 45 1007.5
20260503171210 66 55 8.0 15.0 0.00 0.00 0.00 44 1007.5
20260503171113 66 51 9.0 15.0 0.00 0.00 0.00 45 1007.5
20260503171004 66 38 11.0 15.0 0.00 0.00 0.00 45 1007.5
20260503170908 66 40 11.0 15.0 0.00 0.00 0.00 43 1007.7
20260503170814 66 41 11.0 15.0 0.00 0.00 0.00 43 1007.4
20260503170719 66 40 10.0 15.0 0.00 0.00 0.00 44 1007.5
20260503170603 66 32 8.0 17.0 0.00 0.00 0.00 45 1007.5
20260503170507 66 26 7.0 17.0 0.00 0.00 0.00 46 1007.5
20260503170431 66 340 10.0 17.0 0.00 0.00 0.00 44 1007.5
20260503170339 66 44 11.0 17.0 0.00 0.00 0.00 44 1007.6
20260503170220 66 24 10.0 17.0 0.00 0.00 0.00 43 1007.5
20260503170124 66 64 11.0 17.0 0.00 0.00 0.00 44 1007.7
20260503160118 65 355 9.0 17.0 0.00 0.00 0.00 50 1007.3
20260503150948 63 46 10.0 17.0 0.00 0.00 0.00 53 1007.2
20260503150804 62 59 10.0 21.0 0.00 0.00 0.00 53 1007.4
20260503150706 62 38 11.0 21.0 0.00 0.00 0.00 52 1007.1
20260503150631 62 69 11.0 21.0 0.00 0.00 0.00 51 1007.3
20260503150513 62 78 11.0 21.0 0.00 0.00 0.00 50 1007.3
20260503150417 62 47 11.0 21.0 0.00 0.00 0.00 50 1007.3
20260503150318 62 68 11.0 21.0 0.00 0.00 0.00 51 1007.3
20260503150206 62 40 13.0 21.0 0.00 0.00 0.00 50 1007.2
20260503150109 62 41 14.0 21.0 0.00 0.00 0.00 50 1007.4
20260503140250 59 35 15.0 20.0 0.00 0.00 0.00 56 1007.0
20260503140105 59 86 13.0 17.0 0.00 0.00 0.00 56 1007.0
20260503131408 57 41 4.0 12.0 0.00 0.00 0.00 57 1006.4
20260503131312 57 360 4.0 12.0 0.00 0.00 0.00 57 1006.4
20260503131236 57 26 4.0 12.0 0.00 0.00 0.00 56 1006.4
20260503131122 57 43 7.0 12.0 0.00 0.00 0.00 57 1006.5
20260503131046 57 27 8.0 12.0 0.00 0.00 0.00 56 1006.5
20260503130950 57 36 7.0 12.0 0.00 0.00 0.00 57 1006.4
20260503130806 57 360 5.0 9.0 0.00 0.00 0.00 57 1006.4
20260503130709 57 13 4.0 9.0 0.00 0.00 0.00 56 1006.5
20260503130614 57 47 4.0 9.0 0.00 0.00 0.00 56 1006.4
20260503130518 57 355 5.0 9.0 0.00 0.00 0.00 56 1006.3
20260503130406 56 355 5.0 9.0 0.00 0.00 0.00 56 1006.3
20260503130310 56 21 5.0 9.0 0.00 0.00 0.00 56 1006.3
20260503130215 56 5 5.0 9.0 0.00 0.00 0.00 56 1006.4
20260503130140 56 9 6.0 9.0 0.00 0.00 0.00 56 1006.4
20260503120111 50 242 0.0 0.0 0.00 0.00 0.00 66 1005.7
20260503110828 53 242 1.0 3.0 0.00 0.00 0.00 55 1005.0
20260503110715 53 242 1.0 3.0 0.00 0.00 0.00 55 1005.0
20260503110621 53 242 2.0 3.0 0.00 0.00 0.00 55 1005.0
20260503110504 53 242 1.0 3.0 0.00 0.00 0.00 55 1005.0
20260503110429 53 242 1.0 3.0 0.00 0.00 0.00 55 1005.0
20260503110305 53 242 1.0 3.0 0.00 0.00 0.00 55 1005.0
20260503110208 54 242 1.0 3.0 0.00 0.00 0.00 55 1005.0
20260503110116 54 242 2.0 4.0 0.00 0.00 0.00 55 1005.0
20260503100231 57 258 7.0 12.0 0.00 0.00 0.00 50 1005.2
20260503100118 57 279 7.0 12.0 0.00 0.00 0.00 50 1005.1
20260503090507 58 232 3.0 11.0 0.00 0.00 0.00 51 1005.4
20260503090415 58 257 3.0 11.0 0.00 0.00 0.00 51 1005.4
20260503090319 58 244 3.0 11.0 0.00 0.00 0.00 51 1005.4
20260503090205 58 253 5.0 11.0 0.00 0.00 0.00 51 1005.5
20260503090128 58 271 6.0 11.0 0.00 0.00 0.00 51 1005.4
20260503081608 58 222 6.0 14.0 0.00 0.00 0.00 55 1005.6
20260503081531 58 231 8.0 14.0 0.00 0.00 0.00 55 1005.7
20260503081414 58 231 8.0 14.0 0.00 0.00 0.00 55 1005.6
20260503081316 58 264 6.0 14.0 0.00 0.00 0.00 55 1005.6
20260503081219 58 225 4.0 14.0 0.00 0.00 0.00 55 1005.7
20260503081107 58 246 5.0 14.0 0.00 0.00 0.00 55 1005.7
20260503081009 58 252 5.0 14.0 0.00 0.00 0.00 55 1005.7
20260503080912 58 270 6.0 14.0 0.00 0.00 0.00 55 1005.7
20260503080815 58 245 6.0 14.0 0.00 0.00 0.00 55 1005.6
20260503080718 58 232 4.0 8.0 0.00 0.00 0.00 55 1005.7
20260503080641 58 221 3.0 9.0 0.00 0.00 0.00 55 1005.8
20260503080504 58 217 4.0 9.0 0.00 0.00 0.00 55 1005.8
20260503080411 58 240 5.0 9.0 0.00 0.00 0.00 55 1005.8
20260503080314 58 251 4.0 9.0 0.00 0.00 0.00 55 1005.7
20260503080218 58 238 4.0 9.0 0.00 0.00 0.00 55 1005.8
20260503080121 58 251 4.0 9.0 0.00 0.00 0.00 55 1005.8
20260503072926 58 221 5.0 9.0 0.00 0.00 0.00 55 1006.0
20260503072829 58 231 6.0 9.0 0.00 0.00 0.00 55 1006.1
20260503072704 58 248 5.0 9.0 0.00 0.00 0.00 56 1006.0
20260503072627 58 257 4.0 8.0 0.00 0.00 0.00 56 1006.1
20260503072550 58 271 4.0 8.0 0.00 0.00 0.00 56 1006.2
20260503072405 58 240 4.0 8.0 0.00 0.00 0.00 56 1006.1
20260503072314 58 212 4.0 8.0 0.00 0.00 0.00 56 1006.2
20260503072239 58 245 5.0 8.0 0.00 0.00 0.00 56 1006.2
20260503072121 58 228 5.0 8.0 0.00 0.00 0.00 56 1006.2
20260503072006 57 235 5.0 8.0 0.00 0.00 0.00 56 1006.2
20260503071930 57 244 4.0 8.0 0.00 0.00 0.00 56 1006.2
20260503071806 57 216 4.0 8.0 0.00 0.00 0.00 56 1006.2
20260503071710 57 209 4.0 8.0 0.00 0.00 0.00 56 1006.2
20260503071619 57 217 4.0 8.0 0.00 0.00 0.00 56 1006.2
20260503071522 57 219 5.0 8.0 0.00 0.00 0.00 56 1006.2
20260503071427 57 239 4.0 9.0 0.00 0.00 0.00 57 1006.3
20260503071309 57 234 4.0 9.0 0.00 0.00 0.00 56 1006.3
20260503071214 57 234 4.0 9.0 0.00 0.00 0.00 56 1006.3
20260503071119 57 224 3.0 9.0 0.00 0.00 0.00 56 1006.3
20260503071041 57 217 3.0 9.0 0.00 0.00 0.00 56 1006.3
20260503070909 57 208 3.0 9.0 0.00 0.00 0.00 56 1006.3
20260503070813 57 212 3.0 9.0 0.00 0.00 0.00 56 1006.4
20260503070736 57 215 3.0 9.0 0.00 0.00 0.00 56 1006.3
20260503070620 57 225 2.0 9.0 0.00 0.00 0.00 56 1006.4
20260503070545 57 227 3.0 9.0 0.00 0.00 0.00 56 1006.4
20260503070448 57 231 3.0 9.0 0.00 0.00 0.00 56 1006.6
20260503070304 57 217 3.0 9.0 0.00 0.00 0.00 56 1006.6
20260503070212 57 194 4.0 9.0 0.00 0.00 0.00 56 1006.6
20260503070117 57 192 5.0 9.0 0.00 0.00 0.00 55 1006.6
20260503060311 58 219 6.0 10.0 0.00 0.00 0.00 51 1007.4
20260503060235 58 209 6.0 10.0 0.00 0.00 0.00 51 1007.4
20260503060103 58 215 4.0 8.0 0.00 0.00 0.00 51 1007.5
20260503055126 58 227 4.0 11.0 0.00 0.00 0.00 50 1007.7
20260503055010 58 211 5.0 11.0 0.00 0.00 0.00 50 1007.8
20260503054933 58 242 6.0 11.0 0.00 0.00 0.00 50 1007.7
20260503054819 58 229 6.0 11.0 0.00 0.00 0.00 50 1007.8
20260503054704 58 241 4.0 11.0 0.00 0.00 0.00 50 1007.9
20260503054629 58 219 3.0 10.0 0.00 0.00 0.00 50 1007.8
20260503054505 58 223 3.0 10.0 0.00 0.00 0.00 50 1007.8
20260503054429 58 231 5.0 11.0 0.00 0.00 0.00 51 1007.9
20260503054306 58 202 5.0 11.0 0.00 0.00 0.00 50 1007.9
20260503054215 58 240 5.0 11.0 0.00 0.00 0.00 51 1007.9
20260503054118 58 217 6.0 11.0 0.00 0.00 0.00 50 1007.8
20260503054018 58 183 6.0 11.0 0.00 0.00 0.00 50 1007.8
20260503053904 58 198 5.0 11.0 0.00 0.00 0.00 50 1007.9
20260503053827 58 227 5.0 11.0 0.00 0.00 0.00 51 1007.9
20260503053710 58 231 6.0 11.0 0.00 0.00 0.00 51 1008.0
20260503053615 58 201 7.0 11.0 0.00 0.00 0.00 50 1008.0
20260503053522 58 244 5.0 11.0 0.00 0.00 0.00 51 1007.9
20260503053425 58 241 4.0 11.0 0.00 0.00 0.00 51 1008.0
20260503053303 58 251 3.0 11.0 0.00 0.00 0.00 51 1008.0
20260503053207 58 221 5.0 11.0 0.00 0.00 0.00 51 1008.0
20260503053111 58 220 7.0 11.0 0.00 0.00 0.00 50 1007.9
20260503053015 58 242 7.0 11.0 0.00 0.00 0.00 50 1008.0
20260503052944 58 232 6.0 11.0 0.00 0.00 0.00 51 1008.0
20260503052847 58 248 4.0 11.0 0.00 0.00 0.00 52 1008.0
20260503052703 58 245 5.0 11.0 0.00 0.00 0.00 51 1008.0
20260503052608 58 247 5.0 11.0 0.00 0.00 0.00 51 1008.0
20260503052531 58 223 6.0 11.0 0.00 0.00 0.00 51 1007.9
20260503052414 58 235 5.0 11.0 0.00 0.00 0.00 51 1007.9
20260503052338 58 234 5.0 10.0 0.00 0.00 0.00 51 1007.9
20260503052204 58 214 5.0 10.0 0.00 0.00 0.00 52 1007.9
20260503052108 58 227 4.0 8.0 0.00 0.00 0.00 52 1007.8
20260503052012 58 235 4.0 9.0 0.00 0.00 0.00 51 1007.9
20260503051917 58 229 5.0 9.0 0.00 0.00 0.00 52 1007.9
20260503051819 58 220 5.0 9.0 0.00 0.00 0.00 52 1007.9
20260503051723 58 254 5.0 9.0 0.00 0.00 0.00 52 1008.0
20260503051611 58 232 5.0 9.0 0.00 0.00 0.00 52 1007.9
20260503051514 58 214 4.0 9.0 0.00 0.00 0.00 52 1007.9
20260503051418 58 234 4.0 9.0 0.00 0.00 0.00 52 1007.9
20260503051322 58 206 5.0 9.0 0.00 0.00 0.00 52 1007.9
20260503051227 58 206 6.0 9.0 0.00 0.00 0.00 52 1007.9
20260503051130 58 197 5.0 9.0 0.00 0.00 0.00 51 1007.9
20260503051012 58 193 6.0 9.0 0.00 0.00 0.00 51 1007.9
20260503050920 58 190 5.0 9.0 0.00 0.00 0.00 51 1007.9
20260503050824 58 202 5.0 9.0 0.00 0.00 0.00 51 1007.9
20260503050748 58 198 5.0 7.0 0.00 0.00 0.00 51 1008.0
20260503050603 58 199 4.0 7.0 0.00 0.00 0.00 51 1008.0
20260503050527 58 198 4.0 7.0 0.00 0.00 0.00 51 1008.0
20260503050404 59 227 4.0 7.0 0.00 0.00 0.00 51 1008.0
20260503050307 59 207 4.0 7.0 0.00 0.00 0.00 51 1008.0
20260503050215 59 207 4.0 7.0 0.00 0.00 0.00 51 1008.1
20260503050119 59 207 4.0 7.0 0.00 0.00 0.00 51 1008.1
20260503050014 59 202 4.0 7.0 0.00 0.00 0.00 51 1008.1
20260503045919 59 219 4.0 7.0 0.00 0.00 0.00 51 1008.1
20260503045842 59 217 4.0 7.0 0.00 0.00 0.00 51 1008.1
20260503045705 59 197 3.0 9.0 0.00 0.00 0.00 51 1008.1
20260503045613 59 216 3.0 9.0 0.00 0.00 0.00 51 1008.1
20260503045517 59 213 3.0 9.0 0.00 0.00 0.00 51 1008.1
20260503045422 59 213 3.0 9.0 0.00 0.00 0.00 51 1008.2
20260503045326 59 223 3.0 9.0 0.00 0.00 0.00 51 1008.1
20260503045250 59 217 4.0 9.0 0.00 0.00 0.00 51 1008.1
20260503045106 59 244 4.0 9.0 0.00 0.00 0.00 51 1008.2
20260503045009 59 243 5.0 9.0 0.00 0.00 0.00 51 1008.2
20260503044918 59 207 5.0 9.0 0.00 0.00 0.00 50 1008.2
20260503044822 59 229 6.0 9.0 0.00 0.00 0.00 51 1008.2
20260503044726 59 227 5.0 8.0 0.00 0.00 0.00 50 1008.2
20260503044609 59 198 4.0 8.0 0.00 0.00 0.00 51 1008.2
20260503044513 59 206 4.0 8.0 0.00 0.00 0.00 50 1008.1
20260503044418 59 212 4.0 8.0 0.00 0.00 0.00 51 1008.1
20260503044326 59 192 4.0 8.0 0.00 0.00 0.00 51 1008.2
20260503044228 59 188 5.0 8.0 0.00 0.00 0.00 50 1008.2
20260503044132 59 212 5.0 8.0 0.00 0.00 0.00 50 1008.2
20260503044014 59 235 4.0 8.0 0.00 0.00 0.00 50 1008.2
20260503043919 59 213 4.0 8.0 0.00 0.00 0.00 50 1008.3
20260503043803 59 217 4.0 8.0 0.00 0.00 0.00 50 1008.3
20260503043707 59 211 3.0 8.0 0.00 0.00 0.00 51 1008.3
20260503043615 59 209 4.0 8.0 0.00 0.00 0.00 50 1008.3
20260503043520 59 210 5.0 8.0 0.00 0.00 0.00 50 1008.3
20260503043405 59 182 4.0 7.0 0.00 0.00 0.00 50 1008.3
20260503043309 59 194 4.0 7.0 0.00 0.00 0.00 50 1008.3
20260503043212 59 209 4.0 7.0 0.00 0.00 0.00 50 1008.3
20260503043115 60 217 4.0 8.0 0.00 0.00 0.00 50 1008.3
20260503043004 60 211 4.0 8.0 0.00 0.00 0.00 50 1008.4
20260503042908 60 211 4.0 8.0 0.00 0.00 0.00 50 1008.4
20260503042812 60 205 5.0 8.0 0.00 0.00 0.00 50 1008.4
20260503042716 60 240 5.0 8.0 0.00 0.00 0.00 50 1008.4
20260503042622 60 223 4.0 8.0 0.00 0.00 0.00 50 1008.4
20260503042507 60 211 4.0 8.0 0.00 0.00 0.00 50 1008.5
20260503042417 60 210 4.0 8.0 0.00 0.00 0.00 50 1008.4
20260503042322 60 203 4.0 8.0 0.00 0.00 0.00 50 1008.4
20260503042207 60 204 5.0 7.0 0.00 0.00 0.00 50 1008.5
20260503042111 60 199 5.0 7.0 0.00 0.00 0.00 50 1008.5
20260503042017 60 193 4.0 7.0 0.00 0.00 0.00 50 1008.4
20260503041907 60 215 3.0 7.0 0.00 0.00 0.00 51 1008.5
20260503041811 60 225 4.0 7.0 0.00 0.00 0.00 50 1008.5
20260503041717 59 223 4.0 7.0 0.00 0.00 0.00 50 1008.6
20260503041603 59 219 4.0 7.0 0.00 0.00 0.00 50 1008.5
20260503041509 60 222 4.0 7.0 0.00 0.00 0.00 50 1008.6
20260503041414 59 221 3.0 6.0 0.00 0.00 0.00 50 1008.6
20260503041304 59 212 3.0 6.0 0.00 0.00 0.00 51 1008.6
20260503041208 59 213 4.0 6.0 0.00 0.00 0.00 51 1008.6
20260503041113 59 213 4.0 6.0 0.00 0.00 0.00 50 1008.6
20260503041037 59 221 4.0 6.0 0.00 0.00 0.00 50 1008.5
20260503040921 59 211 4.0 7.0 0.00 0.00 0.00 50 1008.7
20260503040806 59 214 4.0 7.0 0.00 0.00 0.00 50 1008.7
20260503040715 59 209 4.0 7.0 0.00 0.00 0.00 50 1008.6
20260503040618 59 207 3.0 7.0 0.00 0.00 0.00 50 1008.6
20260503040522 59 202 3.0 7.0 0.00 0.00 0.00 51 1008.6
20260503040406 60 207 4.0 7.0 0.00 0.00 0.00 51 1008.6
20260503040329 59 207 4.0 7.0 0.00 0.00 0.00 50 1008.7
20260503040206 59 220 4.0 7.0 0.00 0.00 0.00 50 1008.7
20260503040115 59 217 4.0 7.0 0.00 0.00 0.00 50 1008.7
20260503040019 59 221 4.0 7.0 0.00 0.00 0.00 51 1008.7
20260503035904 59 207 4.0 7.0 0.00 0.00 0.00 51 1008.8
20260503035807 59 215 4.0 7.0 0.00 0.00 0.00 51 1008.7
20260503035712 59 198 4.0 7.0 0.00 0.00 0.00 51 1008.8
20260503035616 59 197 4.0 7.0 0.00 0.00 0.00 51 1008.8
20260503035540 59 195 4.0 7.0 0.00 0.00 0.00 51 1008.8
20260503035407 59 230 4.0 7.0 0.00 0.00 0.00 51 1008.8
20260503035311 59 198 3.0 7.0 0.00 0.00 0.00 51 1008.8
20260503035234 59 209 4.0 7.0 0.00 0.00 0.00 52 1008.8
20260503035117 59 209 3.0 7.0 0.00 0.00 0.00 52 1008.9
20260503035021 59 228 3.0 7.0 0.00 0.00 0.00 52 1009.0
20260503034944 59 219 2.0 7.0 0.00 0.00 0.00 52 1009.0
20260503034811 59 219 2.0 7.0 0.00 0.00 0.00 52 1009.0
20260503034735 59 219 3.0 7.0 0.00 0.00 0.00 52 1009.1
20260503034618 59 219 3.0 7.0 0.00 0.00 0.00 51 1009.1
20260503034521 59 204 3.0 6.0 0.00 0.00 0.00 52 1009.0
20260503034405 59 203 4.0 6.0 0.00 0.00 0.00 52 1009.0
20260503034309 59 202 4.0 6.0 0.00 0.00 0.00 52 1009.0
20260503034212 59 204 4.0 6.0 0.00 0.00 0.00 52 1009.0
20260503034139 59 211 3.0 6.0 0.00 0.00 0.00 52 1009.0
20260503034042 59 202 3.0 6.0 0.00 0.00 0.00 52 1009.1
20260503033925 59 208 3.0 6.0 0.00 0.00 0.00 51 1009.1
20260503033828 59 208 3.0 6.0 0.00 0.00 0.00 51 1009.2
20260503033706 60 211 4.0 6.0 0.00 0.00 0.00 52 1009.1
20260503033629 60 211 4.0 6.0 0.00 0.00 0.00 52 1009.2
20260503033511 60 220 3.0 6.0 0.00 0.00 0.00 51 1009.2
20260503033435 60 200 3.0 5.0 0.00 0.00 0.00 52 1009.2
20260503033323 60 198 3.0 7.0 0.00 0.00 0.00 52 1009.1
20260503033207 60 198 3.0 7.0 0.00 0.00 0.00 51 1009.2
20260503033111 60 198 3.0 7.0 0.00 0.00 0.00 51 1009.4
20260503033014 60 198 2.0 7.0 0.00 0.00 0.00 51 1009.3
20260503032919 60 198 3.0 8.0 0.00 0.00 0.00 50 1009.4
20260503032823 60 198 3.0 8.0 0.00 0.00 0.00 51 1009.4
20260503032731 60 197 3.0 8.0 0.00 0.00 0.00 51 1009.4
20260503032614 60 197 3.0 8.0 0.00 0.00 0.00 50 1009.4
20260503032537 60 198 4.0 8.0 0.00 0.00 0.00 50 1009.4
20260503032420 60 203 3.0 8.0 0.00 0.00 0.00 50 1009.4
20260503032304 60 200 4.0 8.0 0.00 0.00 0.00 50 1009.5
20260503032229 60 212 5.0 8.0 0.00 0.00 0.00 50 1009.5
20260503032106 60 205 5.0 8.0 0.00 0.00 0.00 50 1009.4
20260503032012 60 175 4.0 5.0 0.00 0.00 0.00 50 1009.4
20260503031916 60 184 4.0 5.0 0.00 0.00 0.00 49 1009.5
20260503031819 60 194 4.0 5.0 0.00 0.00 0.00 49 1009.5
20260503031705 60 197 3.0 4.0 0.00 0.00 0.00 49 1009.7
20260503031609 60 217 2.0 4.0 0.00 0.00 0.00 49 1009.7
20260503031533 60 219 1.0 3.0 0.00 0.00 0.00 49 1009.8
20260503031420 60 219 1.0 3.0 0.00 0.00 0.00 48 1009.9
20260503031324 60 219 1.0 3.0 0.00 0.00 0.00 49 1009.9
20260503031227 60 219 1.0 3.0 0.00 0.00 0.00 49 1010.0
20260503031104 60 219 0.0 3.0 0.00 0.00 0.00 49 1010.0
20260503031009 60 219 1.0 4.0 0.00 0.00 0.00 49 1010.0
20260503030932 60 219 1.0 4.0 0.00 0.00 0.00 48 1009.9
20260503030815 60 219 2.0 4.0 0.00 0.00 0.00 49 1010.0
20260503030722 60 219 2.0 4.0 0.00 0.00 0.00 49 1010.0
20260503030605 60 219 2.0 4.0 0.00 0.00 0.00 49 1010.0
20260503030529 60 219 2.0 4.0 0.00 0.00 0.00 49 1009.9
20260503030412 60 219 2.0 4.0 0.00 0.00 0.00 48 1010.0
20260503030315 60 219 2.0 4.0 0.00 0.00 0.00 48 1010.0
20260503030219 60 219 2.0 4.0 0.00 0.00 0.00 49 1010.0
20260503030127 60 219 2.0 4.0 0.00 0.00 0.00 49 1010.0
20260503030009 60 219 2.0 4.0 0.00 0.00 0.00 49 1010.0
20260503025913 60 219 2.0 4.0 0.00 0.00 0.00 49 1010.0
20260503025818 60 219 2.0 4.0 0.00 0.00 0.00 49 1010.0
20260503025722 60 217 1.0 4.0 0.00 0.00 0.00 49 1010.0
20260503025606 60 217 2.0 5.0 0.00 0.00 0.00 49 1010.0
20260503025529 60 217 2.0 5.0 0.00 0.00 0.00 49 1010.1
20260503025415 60 217 2.0 5.0 0.00 0.00 0.00 48 1010.2
20260503025319 60 217 2.0 5.0 0.00 0.00 0.00 48 1010.2
20260503025243 60 217 3.0 5.0 0.00 0.00 0.00 48 1010.2
20260503025107 60 217 3.0 5.0 0.00 0.00 0.00 49 1010.3
20260503025032 60 216 3.0 5.0 0.00 0.00 0.00 48 1010.3
20260503024917 60 215 3.0 5.0 0.00 0.00 0.00 48 1010.3
20260503024806 60 215 4.0 5.0 0.00 0.00 0.00 48 1010.4
20260503024731 60 236 4.0 5.0 0.00 0.00 0.00 48 1010.4
20260503024615 60 235 3.0 5.0 0.00 0.00 0.00 49 1010.5
20260503024519 60 248 3.0 5.0 0.00 0.00 0.00 49 1010.4
20260503024406 60 250 3.0 5.0 0.00 0.00 0.00 48 1010.5
20260503024330 60 250 2.0 5.0 0.00 0.00 0.00 48 1010.6
20260503024205 61 249 2.0 5.0 0.00 0.00 0.00 49 1010.6
20260503024134 61 249 2.0 5.0 0.00 0.00 0.00 48 1010.5
20260503024037 61 249 3.0 5.0 0.00 0.00 0.00 48 1010.6
20260503023919 61 249 3.0 5.0 0.00 0.00 0.00 47 1010.6
20260503023823 61 249 3.0 5.0 0.00 0.00 0.00 48 1010.6
20260503023727 61 238 3.0 5.0 0.00 0.00 0.00 48 1010.6
20260503023604 61 238 3.0 7.0 0.00 0.00 0.00 47 1010.6
20260503023528 61 254 3.0 8.0 0.00 0.00 0.00 48 1010.6
20260503023431 61 255 3.0 8.0 0.00 0.00 0.00 48 1010.6
20260503023338 61 255 3.0 8.0 0.00 0.00 0.00 48 1010.6
20260503023220 61 259 4.0 8.0 0.00 0.00 0.00 48 1010.6
20260503023106 61 270 4.0 8.0 0.00 0.00 0.00 47 1010.6
20260503023030 61 263 3.0 8.0 0.00 0.00 0.00 48 1010.6
20260503022913 61 254 3.0 8.0 0.00 0.00 0.00 48 1010.6
20260503022837 61 254 3.0 8.0 0.00 0.00 0.00 48 1010.6
20260503022740 61 294 3.0 8.0 0.00 0.00 0.00 48 1010.6
20260503022642 61 244 2.0 7.0 0.00 0.00 0.00 48 1010.6
20260503022508 61 244 2.0 7.0 0.00 0.00 0.00 47 1010.7
20260503022411 61 265 2.0 7.0 0.00 0.00 0.00 47 1010.6
20260503022316 61 271 3.0 8.0 0.00 0.00 0.00 47 1010.6
20260503022220 61 271 3.0 11.0 0.00 0.00 0.00 47 1010.7
20260503022123 61 277 3.0 11.0 0.00 0.00 0.00 47 1010.7
20260503022027 61 251 3.0 11.0 0.00 0.00 0.00 47 1010.7
20260503021914 61 263 3.0 11.0 0.00 0.00 0.00 47 1010.7
20260503021817 61 245 3.0 11.0 0.00 0.00 0.00 47 1010.7
20260503021721 61 268 3.0 11.0 0.00 0.00 0.00 47 1010.7
20260503021604 61 257 5.0 11.0 0.00 0.00 0.00 48 1010.7
20260503021529 61 274 7.0 11.0 0.00 0.00 0.00 48 1010.7
20260503021405 61 263 6.0 11.0 0.00 0.00 0.00 47 1010.7
20260503021312 61 254 4.0 11.0 0.00 0.00 0.00 46 1010.8
20260503021217 61 259 4.0 14.0 0.00 0.00 0.00 47 1010.8
20260503021121 61 261 3.0 20.0 0.00 0.00 0.00 47 1010.8
20260503021005 61 246 3.0 21.0 0.00 0.00 0.00 47 1010.8
20260503020907 62 242 4.0 21.0 0.00 0.00 0.00 47 1010.8
20260503020812 62 281 5.0 21.0 0.00 0.00 0.00 46 1010.9
20260503020720 62 289 6.0 21.0 0.00 0.00 0.00 47 1010.9
20260503020643 62 313 7.0 21.0 0.00 0.00 0.00 46 1011.0
20260503020505 62 306 11.0 21.0 0.00 0.00 0.00 46 1011.1
20260503020430 62 314 13.0 21.0 0.00 0.00 0.00 46 1011.1
20260503020306 62 300 13.0 21.0 0.00 0.00 0.00 45 1011.1
20260503020210 62 275 9.0 21.0 0.00 0.00 0.00 45 1011.1
20260503020112 62 290 7.0 14.0 0.00 0.00 0.00 45 1011.1
20260503020020 62 262 6.0 14.0 0.00 0.00 0.00 44 1011.1
20260503015924 62 308 6.0 14.0 0.00 0.00 0.00 45 1011.1
20260503015807 62 294 7.0 14.0 0.00 0.00 0.00 44 1011.1
20260503015708 62 338 6.0 14.0 0.00 0.00 0.00 44 1011.1
20260503015612 62 294 7.0 14.0 0.00 0.00 0.00 44 1011.0
20260503015536 62 321 9.0 14.0 0.00 0.00 0.00 45 1011.1
20260503015403 62 333 9.0 14.0 0.00 0.00 0.00 44 1011.1
20260503015308 62 315 10.0 14.0 0.00 0.00 0.00 43 1011.0
20260503015210 62 304 11.0 19.0 0.00 0.00 0.00 45 1011.0
20260503015115 62 295 10.0 19.0 0.00 0.00 0.00 44 1010.9
20260503015018 62 311 9.0 19.0 0.00 0.00 0.00 44 1011.0
20260503014922 62 301 10.0 19.0 0.00 0.00 0.00 44 1011.0
20260503014829 62 311 12.0 19.0 0.00 0.00 0.00 44 1010.9
20260503014705 62 292 12.0 19.0 0.00 0.00 0.00 43 1011.0
20260503014608 62 286 11.0 19.0 0.00 0.00 0.00 43 1010.9
20260503014531 63 309 13.0 19.0 0.00 0.00 0.00 43 1010.9
20260503014413 63 294 14.0 19.0 0.00 0.00 0.00 43 1010.9
20260503014337 63 300 13.0 19.0 0.00 0.00 0.00 43 1010.9
20260503014219 63 309 12.0 19.0 0.00 0.00 0.00 42 1010.9
20260503014126 63 281 12.0 19.0 0.00 0.00 0.00 43 1010.9
20260503014049 63 280 13.0 19.0 0.00 0.00 0.00 43 1010.8
20260503013905 63 291 14.0 19.0 0.00 0.00 0.00 43 1010.9
20260503013808 63 285 13.0 19.0 0.00 0.00 0.00 43 1010.9
20260503013732 63 300 12.0 18.0 0.00 0.00 0.00 43 1010.9
20260503013635 63 292 12.0 18.0 0.00 0.00 0.00 43 1010.8
20260503013517 63 302 13.0 18.0 0.00 0.00 0.00 43 1010.7
20260503013405 63 293 13.0 19.0 0.00 0.00 0.00 43 1010.8
20260503013307 63 307 11.0 19.0 0.00 0.00 0.00 43 1010.8
20260503013209 63 295 9.0 19.0 0.00 0.00 0.00 43 1010.8
20260503013112 63 318 10.0 19.0 0.00 0.00 0.00 43 1010.8
20260503013016 63 279 10.0 19.0 0.00 0.00 0.00 43 1010.8
20260503012918 63 312 9.0 19.0 0.00 0.00 0.00 43 1010.8
20260503012806 63 279 9.0 19.0 0.00 0.00 0.00 43 1010.8
20260503012728 63 300 12.0 19.0 0.00 0.00 0.00 43 1010.8
20260503012604 62 273 14.0 19.0 0.00 0.00 0.00 42 1010.7
20260503012507 62 279 14.0 17.0 0.00 0.00 0.00 43 1010.8
20260503012430 62 293 12.0 17.0 0.00 0.00 0.00 43 1010.8
20260503012313 62 277 8.0 17.0 0.00 0.00 0.00 44 1010.7
20260503012215 62 306 6.0 11.0 0.00 0.00 0.00 45 1010.8
20260503012139 62 298 7.0 10.0 0.00 0.00 0.00 45 1010.8
20260503012004 62 284 8.0 10.0 0.00 0.00 0.00 44 1010.7
20260503011906 62 293 7.0 10.0 0.00 0.00 0.00 45 1010.7
20260503011831 62 299 6.0 10.0 0.00 0.00 0.00 46 1010.8
20260503011712 62 284 7.0 10.0 0.00 0.00 0.00 45 1010.8
20260503011615 62 292 7.0 10.0 0.00 0.00 0.00 45 1010.7
20260503011517 62 291 6.0 10.0 0.00 0.00 0.00 44 1010.7
20260503011403 62 281 5.0 10.0 0.00 0.00 0.00 46 1010.8
20260503011308 62 292 7.0 10.0 0.00 0.00 0.00 46 1010.7
20260503011210 62 277 7.0 10.0 0.00 0.00 0.00 44 1010.7
20260503011113 62 298 7.0 9.0 0.00 0.00 0.00 45 1010.8
20260503011015 63 286 8.0 9.0 0.00 0.00 0.00 45 1010.8
20260503010939 63 299 6.0 9.0 0.00 0.00 0.00 44 1010.7
20260503010822 63 308 4.0 10.0 0.00 0.00 0.00 45 1010.8
20260503010730 63 298 4.0 10.0 0.00 0.00 0.00 44 1010.7
20260503010605 63 276 4.0 10.0 0.00 0.00 0.00 45 1010.7
20260503010510 63 261 3.0 10.0 0.00 0.00 0.00 45 1010.7
20260503010434 63 267 3.0 10.0 0.00 0.00 0.00 45 1010.8
20260503010316 63 246 4.0 10.0 0.00 0.00 0.00 45 1010.7
20260503010220 63 290 5.0 10.0 0.00 0.00 0.00 45 1010.7
20260503010106 63 306 5.0 10.0 0.00 0.00 0.00 43 1010.8
20260503010030 63 286 5.0 10.0 0.00 0.00 0.00 43 1010.7
20260503005905 63 265 4.0 8.0 0.00 0.00 0.00 44 1010.8
20260503005810 63 279 4.0 8.0 0.00 0.00 0.00 44 1010.8
20260503005712 63 266 5.0 8.0 0.00 0.00 0.00 44 1010.7
20260503005616 63 266 4.0 9.0 0.00 0.00 0.00 43 1010.7
20260503005540 63 284 4.0 9.0 0.00 0.00 0.00 45 1010.8
20260503005404 63 274 4.0 9.0 0.00 0.00 0.00 43 1010.8
20260503005327 63 264 4.0 9.0 0.00 0.00 0.00 43 1010.7
20260503005203 63 255 3.0 9.0 0.00 0.00 0.00 44 1010.8
20260503005128 63 255 4.0 9.0 0.00 0.00 0.00 44 1010.8
20260503005006 63 261 5.0 10.0 0.00 0.00 0.00 44 1010.8
20260503004909 63 293 6.0 10.0 0.00 0.00 0.00 43 1010.8
20260503004818 63 261 6.0 10.0 0.00 0.00 0.00 43 1010.8
20260503004743 63 278 5.0 10.0 0.00 0.00 0.00 44 1010.8